Regional Weather Roundup
Issued by NWS

Home | Current Version | Previous Version | Graphics & Text | Print | Product List | Glossary On
Versions: 1 2 3 4 5 6 7 8 9 10 11 12 13 14 15 16 17 18 19 20 21 22 23 24 25 26 27 28 29 30 31 32 33 34 35 36 37 38 39 40 41 42 43 44 45 46 47 48 49 50
000
ASUS43 KBIS 261310
RWRND

NORTH DAKOTA REGIONAL WEATHER ROUNDUP
NATIONAL WEATHER SERVICE BISMARCK ND
700 AM CST MON JAN 26 2015

NOTE: "FAIR" INDICATES FEW OR NO CLOUDS BELOW 12,000 FEET WITH NO
SIGNIFICANT WEATHER AND/OR OBSTRUCTIONS TO VISIBILITY.


NDZ001>003-009>011-017-261400-
NORTHWEST NORTH DAKOTA

CITY           SKY/WX    TMP DP  RH WIND       PRES   REMARKS
WILLISTON      CLEAR     35  30  82 SW8       29.92R
MINOT          CLEAR     38  29  70 W17       29.83R
MINOT AFB      CLEAR     35  35  96 NW20      29.82R
$$

NDZ018>021-031>035-040>046-261400-
SOUTHWEST NORTH DAKOTA

CITY           SKY/WX    TMP DP  RH WIND       PRES   REMARKS
BISMARCK       PTCLDY    38  32  79 NW7       29.86R
DICKINSON      CLEAR     35  31  85 W14       29.89S
GARRISON         N/A     37  31  78 NW17      29.84R
HETTINGER ARPT CLEAR     34  30  85 W10       29.93S
$$

NDZ004>008-012>016-024-026-027-054-261400-
NORTHEAST NORTH DAKOTA

CITY           SKY/WX    TMP DP  RH WIND       PRES   REMARKS
GRAND FORKS    PTCLDY    34  29  82 NW10      29.67R
GRND FRKS AFB  CLEAR     37  29  75 NW14G21   29.68R
DEVILS LAKE    CLEAR     34  28  80 NW18      29.73R
$$

NDZ022-023-025-028>030-036>039-047>053-261400-
SOUTHEAST NORTH DAKOTA

CITY           SKY/WX    TMP DP  RH WIND       PRES   REMARKS
FARGO          CLEAR     32  28  85 W10       29.70R
JAMESTOWN      CLEAR     37  31  78 NW20      29.75R
$$




USA.gov is the U.S. government's official web portal to all federal, state and local government web resources and services.